Погода в Искье

Италия     40°43′49″N   13°57′10″E
темп.,
°C
ветер,
м/с
пор.,
м/с
влажн.,
%
обл.,
%
осадки,
мм/ч
давл.,
гПа
погр.,
м
6 мая, чт
чт623:00+16з22770 0.0 1016218
02:00+16зюз1271100 0.0 1016233
05:00+16з2369100 0.0 1016263
08:00+17ююз1270100 0.0 1016233
11:00+17ю22685 0.0 1017267
14:00+18юз2370100 0.0 1017365
17:00+18юз3370100 0.0 1016378
20:00+18ююз3376100 0.0 1016116
7 мая, пт
пт723:00+17з2276100 0.0 101640
02:00+17зсз337599 0.0 101572
05:00+17юз3374100 0.0 1015118
08:00+17з117383 0.0 101547
11:00+17ююз23690 0.0 1015250
14:00+18юз45721 0.0 1015391
17:00+18юз45774 0.0 1014295
20:00+18зюз347798 0.0 1015102
8 мая, сб
сб823:00+18зюз45805 0.0 1015100
02:00+18з34810 0.0 101589
05:00+17сз1182100 0.0 101552
08:00+17вюв117847 0.1 101561
11:00+17ююв44785 0.2 1017244
14:00+18ю44784 0.2 1017297
17:00+18з22682 0.0 1017209
20:00+18зсз22725 0.0 101733
9 мая, вс
вс923:00+18с22755 0.0 101919
02:00+18юв12751 0.0 101916
05:00+17в22770 0.0 101833
08:00+17св22710 0.0 101994
11:00+18ю22680 0.0 1019137
14:00+18ю33700 0.0 1019196
17:00+19ююз23690 0.0 1019224
20:00+19юв117549 0.0 101920
10 мая, пн
пн1023:00+18ююв227399 0.0 101914
02:00+18юв227389 0.0 101920
05:00+18юв3377100 0.0 101858
08:00+18юв33781 0.0 101983
11:00+18юв23720 0.0 1019105
14:00+19ююз33670 0.0 1019140
17:00+19зюз2264100 0.0 1018109
20:00+19з1169100 0.0 101715